Total_Precipitation_Accumulation
0.02 0.07 0.24 0.37 0.36 0.34 0.33 0.32 0.31 0.26 0.24 0.29 0.33 0.37 0.40 0.38 0.35 0.33 0.32 0.33 0.35 0.37 0.41 0.45 0.44 0.43 0.39 0.37 0.34 0.30 0.31 0.35 0.35 0.34 0.35 0.40 0.42 0.39 0.36 0.33 0.24 0.32 0.49
0.02 0.08 0.23 0.30 0.31 0.32 0.31 0.30 0.27 0.23 0.22 0.27 0.30 0.31 0.33 0.34 0.34 0.35 0.34 0.33 0.33 0.37 0.43 0.47 0.44 0.40 0.38 0.34 0.30 0.25 0.23 0.23 0.25 0.26 0.23 0.21 0.36 0.42 0.36 0.38 0.35 0.55 0.64
0.01 0.07 0.16 0.25 0.28 0.30 0.30 0.28 0.25 0.23 0.23 0.26 0.28 0.27 0.28 0.31 0.33 0.34 0.35 0.34 0.34 0.33 0.35 0.39 0.39 0.35 0.32 0.27 0.23 0.20 0.20 0.17 0.15 0.17 0.17 0.13 0.30 0.50 0.46 0.44 0.44 0.62 0.63
0.02 0.06 0.10 0.20 0.26 0.29 0.28 0.27 0.26 0.26 0.26 0.30 0.30 0.27 0.29 0.32 0.33 0.35 0.34 0.32 0.33 0.32 0.32 0.32 0.29 0.27 0.24 0.18 0.17 0.17 0.17 0.15 0.11 0.10 0.05 0.07 0.28 0.53 0.56 0.52 0.49 0.53 0.58
0.02 0.05 0.11 0.22 0.26 0.27 0.28 0.27 0.27 0.27 0.30 0.34 0.35 0.31 0.30 0.32 0.34 0.35 0.33 0.31 0.29 0.29 0.29 0.28 0.25 0.24 0.21 0.18 0.17 0.18 0.17 0.14 0.10 0.05 0.02 0.06 0.22 0.48 0.47 0.47 0.43 0.48 0.52
0.02 0.04 0.11 0.22 0.27 0.27 0.29 0.29 0.28 0.29 0.32 0.37 0.37 0.34 0.33 0.34 0.34 0.33 0.33 0.31 0.28 0.27 0.27 0.25 0.24 0.25 0.23 0.21 0.20 0.23 0.24 0.21 0.11 0.03 0.02 0.05 0.13 0.32 0.41 0.46 0.45 0.44 0.40
0.03 0.05 0.12 0.23 0.30 0.30 0.31 0.31 0.31 0.32 0.35 0.37 0.38 0.38 0.38 0.37 0.36 0.34 0.30 0.28 0.26 0.25 0.26 0.26 0.24 0.24 0.25 0.24 0.24 0.26 0.31 0.26 0.13 0.14 0.10 0.08 0.12 0.24 0.33 0.43 0.46 0.44 0.43
0.04 0.07 0.15 0.29 0.33 0.32 0.33 0.32 0.34 0.35 0.38 0.37 0.38 0.39 0.42 0.41 0.35 0.32 0.31 0.29 0.28 0.26 0.25 0.22 0.20 0.20 0.22 0.25 0.25 0.25 0.28 0.19 0.15 0.23 0.25 0.21 0.20 0.28 0.34 0.39 0.43 0.45 0.49
0.05 0.09 0.18 0.30 0.35 0.39 0.40 0.38 0.37 0.38 0.40 0.39 0.40 0.39 0.41 0.42 0.38 0.33 0.30 0.31 0.29 0.27 0.25 0.21 0.18 0.16 0.17 0.17 0.19 0.22 0.23 0.18 0.23 0.37 0.32 0.35 0.30 0.39 0.43 0.39 0.39 0.46 0.50
0.10 0.13 0.20 0.28 0.35 0.39 0.42 0.41 0.41 0.41 0.42 0.42 0.43 0.43 0.39 0.39 0.40 0.36 0.32 0.31 0.30 0.28 0.27 0.24 0.21 0.19 0.18 0.16 0.15 0.16 0.18 0.15 0.18 0.27 0.38 0.33 0.33 0.49 0.57 0.50 0.43 0.44 0.49
0.17 0.20 0.25 0.30 0.35 0.40 0.44 0.41 0.44 0.46 0.47 0.49 0.47 0.44 0.44 0.41 0.39 0.36 0.32 0.29 0.28 0.28 0.27 0.25 0.22 0.21 0.20 0.16 0.14 0.13 0.12 0.09 0.15 0.24 0.30 0.28 0.35 0.53 0.66 0.61 0.57 0.50 0.49
0.19 0.23 0.28 0.32 0.38 0.44 0.47 0.48 0.51 0.51 0.48 0.49 0.43 0.42 0.42 0.41 0.39 0.34 0.31 0.30 0.29 0.30 0.31 0.30 0.26 0.22 0.21 0.16 0.13 0.15 0.09 0.05 0.04 0.07 0.11 0.16 0.25 0.40 0.60 0.67 0.67 0.64 0.59
0.17 0.24 0.30 0.36 0.40 0.47 0.50 0.49 0.48 0.50 0.48 0.48 0.44 0.41 0.42 0.44 0.41 0.37 0.36 0.34 0.32 0.29 0.30 0.33 0.34 0.31 0.30 0.26 0.21 0.21 0.13 0.09 0.06 0.04 0.04 0.09 0.13 0.22 0.35 0.49 0.67 0.74 0.75
0.19 0.27 0.32 0.39 0.47 0.52 0.53 0.53 0.48 0.46 0.46 0.44 0.45 0.42 0.40 0.39 0.37 0.33 0.30 0.29 0.28 0.26 0.25 0.26 0.28 0.32 0.37 0.36 0.29 0.23 0.22 0.21 0.15 0.11 0.07 0.09 0.11 0.15 0.23 0.32 0.48 0.66 0.78
0.19 0.28 0.36 0.43 0.49 0.57 0.62 0.57 0.52 0.48 0.44 0.43 0.45 0.43 0.39 0.36 0.32 0.29 0.29 0.29 0.28 0.24 0.22 0.21 0.20 0.19 0.22 0.26 0.28 0.24 0.23 0.21 0.19 0.19 0.15 0.15 0.13 0.13 0.18 0.26 0.36 0.52 0.68
0.21 0.30 0.39 0.47 0.51 0.56 0.63 0.60 0.55 0.51 0.48 0.47 0.45 0.42 0.40 0.38 0.35 0.30 0.28 0.27 0.28 0.26 0.24 0.21 0.19 0.16 0.14 0.13 0.13 0.14 0.19 0.21 0.22 0.22 0.19 0.17 0.16 0.13 0.16 0.21 0.29 0.41 0.58
0.25 0.34 0.43 0.47 0.53 0.57 0.61 0.64 0.61 0.57 0.53 0.53 0.50 0.45 0.44 0.43 0.41 0.37 0.32 0.27 0.26 0.25 0.26 0.25 0.24 0.21 0.17 0.13 0.11 0.10 0.10 0.12 0.15 0.19 0.19 0.19 0.20 0.17 0.16 0.20 0.25 0.30 0.42
0.29 0.38 0.49 0.51 0.55 0.59 0.60 0.68 0.66 0.65 0.57 0.57 0.59 0.54 0.47 0.45 0.45 0.42 0.40 0.36 0.31 0.28 0.27 0.28 0.26 0.25 0.20 0.16 0.12 0.11 0.10 0.10 0.10 0.11 0.13 0.17 0.21 0.22 0.20 0.21 0.24 0.28 0.32
0.26 0.36 0.50 0.57 0.60 0.62 0.63 0.69 0.74 0.72 0.67 0.62 0.63 0.63 0.55 0.50 0.49 0.46 0.41 0.39 0.41 0.37 0.31 0.29 0.26 0.24 0.22 0.18 0.15 0.13 0.11 0.10 0.10 0.10 0.09 0.09 0.11 0.16 0.21 0.22 0.22 0.24 0.25
0.25 0.35 0.49 0.63 0.69 0.70 0.74 0.75 0.83 0.84 0.76 0.69 0.64 0.67 0.64 0.57 0.53 0.52 0.46 0.40 0.40 0.41 0.36 0.31 0.28 0.25 0.23 0.22 0.20 0.17 0.16 0.13 0.11 0.10 0.09 0.08 0.08 0.11 0.15 0.18 0.20 0.20 0.22
0.31 0.38 0.49 0.60 0.73 0.76 0.80 0.80 0.77 0.82 0.81 0.74 0.66 0.67 0.75 0.68 0.57 0.54 0.52 0.49 0.43 0.39 0.35 0.31 0.29 0.28 0.27 0.25 0.26 0.25 0.21 0.17 0.15 0.12 0.10 0.08 0.07 0.08 0.12 0.16 0.17 0.18 0.19
0.33 0.37 0.47 0.60 0.70 0.73 0.73 0.77 0.75 0.76 0.75 0.74 0.69 0.67 0.72 0.78 0.71 0.58 0.52 0.50 0.46 0.41 0.37 0.32 0.30 0.31 0.31 0.28 0.27 0.29 0.28 0.25 0.19 0.13 0.11 0.09 0.07 0.07 0.08 0.11 0.16 0.17 0.16
0.30 0.33 0.39 0.54 0.70 0.74 0.71 0.79 0.86 0.90 0.92 0.86 0.78 0.70 0.72 0.76 0.76 0.67 0.56 0.49 0.46 0.44 0.42 0.37 0.34 0.32 0.33 0.30 0.26 0.35 0.44 0.33 0.19 0.13 0.11 0.09 0.07 0.07 0.06 0.07 0.11 0.16 0.18
0.32 0.35 0.36 0.44 0.60 0.76 0.76 0.77 0.82 0.88 0.86 0.81 0.76 0.71 0.71 0.76 0.79 0.72 0.66 0.59 0.49 0.43 0.41 0.40 0.38 0.35 0.36 0.37 0.31 0.30 0.33 0.33 0.36 0.23 0.12 0.12 0.12 0.10 0.08 0.07 0.08 0.12 0.18
0.37 0.44 0.43 0.47 0.54 0.72 0.74 0.70 0.73 0.75 0.77 0.75 0.80 0.78 0.77 0.79 0.82 0.82 0.73 0.69 0.64 0.52 0.42 0.40 0.39 0.38 0.38 0.39 0.37 0.33 0.30 0.26 0.26 0.35 0.22 0.15 0.18 0.18 0.15 0.12 0.12 0.14 0.16
0.43 0.53 0.52 0.54 0.55 0.65 0.77 0.71 0.70 0.70 0.73 0.77 0.81 0.87 0.87 0.86 0.84 0.84 0.79 0.72 0.68 0.63 0.53 0.46 0.43 0.40 0.37 0.35 0.36 0.36 0.37 0.38 0.30 0.32 0.31 0.18 0.15 0.14 0.16 0.19 0.18 0.19 0.21